This is the latest recevied weather packets stored in our database for station/object K7FLA. If no packets are shown the sender has not sent any weather packets the latest 1 day(s).
| Time | Temp. | Humidity | Pressure | Rain* | Wind** | Luminosity | Snow |
|---|---|---|---|---|---|---|---|
| 1778000716 | 13.89° C | 73% | 1094.6 hPa | 0 mm | 1.79 m/s, 229° | 335 W/m² | - |
| 1778000413 | 13.89° C | 71% | 1094.5 hPa | 0 mm | 1.79 m/s, 215° | 230 W/m² | - |
| 1778000108 | 13.89° C | 75% | 1094.7 hPa | 0 mm | 3.13 m/s, 263° | 217 W/m² | - |
| 1777999804 | 13.89° C | 75% | 1094.3 hPa | 0 mm | 1.34 m/s, 255° | 305 W/m² | - |
| 1777999500 | 13.89° C | 75% | 1094.2 hPa | 0 mm | 1.34 m/s, 180° | 268 W/m² | - |
| 1777999198 | 13.89° C | 73% | 1094.3 hPa | 0 mm | 1.79 m/s, 228° | 258 W/m² | - |
| 1777998896 | 14.44° C | 74% | 1094.2 hPa | 0 mm | 2.68 m/s, 281° | 242 W/m² | - |
| 1777998596 | 14.44° C | 73% | 1094 hPa | 0 mm | 2.24 m/s, 253° | 240 W/m² | - |
| 1777998291 | 15° C | 72% | 1094 hPa | 0 mm | 2.68 m/s, 279° | 270 W/m² | - |
| 1777997988 | 14.44° C | 75% | 1093.9 hPa | 0 mm | 1.79 m/s, 222° | 278 W/m² | - |
| 1777997684 | 13.89° C | 77% | 1093.8 hPa | 0 mm | 0.89 m/s, 245° | 222 W/m² | - |
| 1777997382 | 13.89° C | 77% | 1093.8 hPa | 0 mm | 0.89 m/s, 245° | 222 W/m² | - |
| 1777997080 | 13.89° C | 76% | 1094 hPa | 0 mm | 1.34 m/s, 206° | 221 W/m² | - |
| 1777996776 | 13.89° C | 75% | 1093.8 hPa | 0 mm | 2.68 m/s, 268° | 202 W/m² | - |
| 1777996473 | 13.89° C | 78% | 1093.8 hPa | 0 mm | 2.24 m/s, 266° | 301 W/m² | - |
| 1777996169 | 13.33° C | 84% | 1093.7 hPa | 0 mm | 1.79 m/s, 253° | 329 W/m² | - |
| 1777995866 | 12.22° C | 84% | 1093.7 hPa | 0 mm | 1.79 m/s, 242° | 240 W/m² | - |
| 1777995562 | 11.67° C | 87% | 1093.5 hPa | 0 mm | 1.79 m/s, 270° | 257 W/m² | - |
| 1777995260 | 11.67° C | 87% | 1093.6 hPa | 0 mm | 1.79 m/s, 187° | 211 W/m² | - |
| 1777994956 | 11.67° C | 87% | 1093.7 hPa | 0 mm | 0.89 m/s, 206° | 157 W/m² | - |
| 1777994654 | 11.11° C | 87% | 1093.6 hPa | 0 mm | 1.34 m/s, 254° | 150 W/m² | - |
| 1777994353 | 11.11° C | 88% | 1093.7 hPa | 0 mm | 0.45 m/s, 216° | 150 W/m² | - |
| 1777994050 | 11.11° C | 89% | 1093.7 hPa | 0 mm | 0 m/s | 198 W/m² | - |
| 1777993748 | 11.11° C | 89% | 1093.4 hPa | 0 mm | 0.89 m/s, 220° | 204 W/m² | - |
| 1777993445 | 10.56° C | 90% | 1093.6 hPa | 0 mm | 0.89 m/s, 254° | 157 W/m² | - |
* Rain latest hour (hover to see other rain measurements)
** Current wind speed in m/s (hover to see current wind gust speed)